Location: G�migny
(47.9646°N, 1.6950°E)
Time: 23:02:10
(UTC+00:00)

STARLINK-40 - Pass Details

Date: 23 October 2019
Orbit: 548 x 551 km, 53.0° (Epoch: 12 November)

Event Time Altitude Azimuth Distance (km) Brightness Sun altitude
Rises 18:02:57 0° 288° (WNW) 2,719 8.6 -12.7°
Reaches altitude 10° 18:05:17 10° 295° (WNW) 1,826 7.3 -13.1°
Maximum altitude 18:09:14 42° 8° (N) 788 4.3 -13.8°
Enters shadow 18:11:28 22° 67° (ENE) 1,217 4.8 -14.2°
